TimeCDT,TemperatureF,Dew PointF,Humidity,Sea Level PressureIn,VisibilityMPH,Wind Direction,Wind SpeedMPH,Gust SpeedMPH,PrecipitationIn,Events,Conditions,WindDirDegrees,DateUTC
12:52 AM,63.0,59.0,87,29.66,-9999.0,SSE,9.2,-,N/A,,Unknown,160,2013-09-18 05:52:00
1:52 AM,62.1,59.0,90,29.68,-9999.0,South,9.2,-,N/A,,Unknown,170,2013-09-18 06:52:00
2:52 AM,61.0,59.0,93,29.64,-9999.0,East,5.8,-,N/A,,Unknown,100,2013-09-18 07:52:00
3:52 AM,61.0,59.0,93,29.61,-9999.0,East,9.2,-,N/A,,Unknown,80,2013-09-18 08:52:00
4:52 AM,61.0,59.0,93,29.59,-9999.0,ENE,4.6,-,N/A,,Unknown,60,2013-09-18 09:52:00
5:52 AM,60.1,59.0,96,29.60,-9999.0,SE,5.8,-,N/A,,Unknown,140,2013-09-18 10:52:00
6:52 AM,60.1,59.0,96,29.57,-9999.0,Calm,Calm,-,N/A,,Unknown,0,2013-09-18 11:52:00
7:52 AM,60.1,59.0,96,29.59,-9999.0,SE,12.7,19.6,N/A,,Unknown,140,2013-09-18 12:52:00
8:52 AM,62.1,60.1,93,29.57,-9999.0,SE,10.4,-,N/A,,Unknown,130,2013-09-18 13:52:00
9:52 AM,64.9,61.0,87,29.57,-9999.0,SE,10.4,-,N/A,,Unknown,140,2013-09-18 14:52:00
10:52 AM,69.1,63.0,81,29.57,-9999.0,SSW,8.1,-,0.01,,Unknown,200,2013-09-18 15:52:00
11:52 AM,66.9,62.1,84,29.57,-9999.0,SSW,9.2,-,N/A,,Unknown,210,2013-09-18 16:52:00
12:52 PM,64.9,62.1,90,29.57,-9999.0,West,6.9,-,N/A,,Unknown,260,2013-09-18 17:52:00
1:52 PM,66.0,63.0,90,29.57,-9999.0,SSE,3.5,-,N/A,,Unknown,160,2013-09-18 18:52:00
2:52 PM,69.1,62.1,78,29.57,-9999.0,Calm,Calm,-,N/A,,Unknown,0,2013-09-18 19:52:00
3:52 PM,72.0,62.1,71,29.55,-9999.0,WSW,3.5,-,N/A,,Unknown,240,2013-09-18 20:52:00
4:52 PM,75.9,61.0,60,29.55,-9999.0,SW,5.8,-,N/A,,Unknown,220,2013-09-18 21:52:00
5:52 PM,75.9,61.0,60,29.56,-9999.0,WSW,4.6,-,N/A,,Unknown,250,2013-09-18 22:52:00
6:52 PM,71.1,62.1,73,29.57,-9999.0,Calm,Calm,-,N/A,,Unknown,0,2013-09-18 23:52:00
7:52 PM,69.1,62.1,78,29.58,-9999.0,Calm,Calm,-,N/A,,Unknown,0,2013-09-19 00:52:00
8:52 PM,66.0,62.1,87,29.58,-9999.0,Calm,Calm,-,N/A,,Unknown,0,2013-09-19 01:52:00
9:52 PM,63.0,60.1,90,29.62,-9999.0,SW,3.5,-,N/A,,Unknown,220,2013-09-19 02:52:00
10:52 PM,64.9,60.1,84,29.63,-9999.0,West,15.0,20.7,N/A,,Unknown,260,2013-09-19 03:52:00
11:52 PM,64.9,59.0,81,29.64,-9999.0,WNW,12.7,20.7,N/A,,Unknown,290,2013-09-19 04:52:00